FENGYUN 1C DEB

Satellite information

Favourite Embed

Satellite Type and Status

DEBRISIN ORBIT

Key statistics

Satellite FENGYUN 1C DEB at a glance.

Uptime

9494

Days in orbit

Revolutions

≈ 14.3

Per day

Orbit

SSO

Sun Synchronous Orbit

Inclination

98.8

Latest

Satellite identification and parameters

Extended collection of information and parameters for FENGYUN 1C DEB.

Object identification

Identified? True

Debris? True

Object name: FENGYUN 1C DEB

International designator: 1999-025CAC

Object number (NORAD): 31622

Object ID (CCSDS): 31622

Country: PEOPLES REPUBLIC OF CHINA (PRC)

Current information (Y/N): Y

RCS size: SMALL

Orbital parameters

Period: 100.389 minutes

Inclination: 98.8154 deg

SMA: 7155.132 km

Apoapsis: 788.326 km

Periapsis: 765.668 km

RAAN: 216.7279 deg

Eccentricy: 0.0015834

Argument of periapsis: 264.492 deg

Mean anomaly: 222.953 deg

Mean motion: 14.34419837 rev/day

Mean motion (dot): 0.00006067 rev/day2

B* drag term: 0.0021669 1/REarth

Two-line elements (TLE)

Creation date: May 7, 2025, 3:14 a.m.

Reference frame: TEME

Reference center: EARTH

Epoch: May 6, 2025, 7:01 p.m. UTC

TLE line 0: 0 FENGYUN 1C DEB

TLE line 1: 1 31622U 99025CAC 25126.79297416 .00006067 00000-0 21669-2 0 9995

TLE line 2: 2 31622 98.8154 216.7279 0015834 264.4920 222.9530 14.34419837926164

Live tracking on map

Real-time ground track for satellite FENGYUN 1C DEB.

In-orbit conjunctions

A list of the most updated potential collisions computed for object FENGYUN 1C DEB.

Target Orbit TCA Probability of collision Miss distance Type
CZ-6A DEB LEO 2025-02-24 06:19:07 0.009119672 32.0 (m) DEBRIS
COSMOS 1867 COOLANT LEO 2024-12-25 10:49:42 0.0001414495 122.0 (m) DEBRIS
THOR AGENA D R/B SSO 2024-09-26 20:32:05 0.0001504256 249.0 (m) ROCKET BODY

Associated space launch

Chinese polar orbiting meteorological satellite

FENGYUN 1C DEB was lifted into orbit during the mission ‘Long March 4B | Feng Yun 1C’, on board a Long March 4B space rocket.

The launch took place on May 10, 1999, 1:33 a.m. from Launch Complex 7.

For more information about the launch, click the button.

Launch to space Long March 4B | Feng Yun 1C
Long March 4B | Feng Yun 1C

Agency: N/A

Status: Launch Successful

Launch date: May 10, 1999, 1:33 a.m. UTC

Rocket: Long March 4B

Launch pad: Launch Complex 7

Location: Taiyuan Satellite Launch Center, People's Republic of China

...

Latest news about this satellite

There are no fresh news available about this satellite. Check back as we update our databases every day.


Newsletter sign-up

Weekly statistics, charts and insights to help you stay on top of the space industry.